Hourly Weather Roundup
Issued by NWS Central Illinois

Home | Current Version | Previous Version | Text Only | Print | Product List | Glossary On
Versions: 1 2 3 4 5 6 7 8 9 10 11 12 13 14 15 16 17 18 19 20 21 22 23 24 25 26 27 28 29 30 31 32 33 34 35 36 37 38 39 40 41 42 43 44 45 46 47 48 49 50
000
NZUS43 KILX 171110
HWRILX

AREA WEATHER ROUNDUP
NATIONAL WEATHER SERVICE, LINCOLN IL
600 AM CDT WED SEP 17 2014


CITY           SKY/WX    TMP DP  RH WIND       PRES   REMARKS
BLOOMINGTON    PTCLDY    45  42  89 SW5       30.06F
CHAMPAIGN      CLEAR     45  43  93 W3        30.07R
DECATUR        CLEAR     45  44  97 CALM      30.07S
FLORA          FOG       42  42 100 CALM      30.07S VSB 1/2
GALESBURG      MOCLDY    48  46  95 SE5       30.02F
JACKSONVILLE   PTCLDY    51  48  91 CALM      30.04F
LACON          MOCLDY    46  45  97 CALM      30.05R
LAWRENCEVILLE  FOG       44  44 100 CALM      30.08S VSB 1/4
LITCHFIELD     CLEAR     46  45  99 CALM      30.05F FOG
$$


CITY           SKY/WX    TMP DP  RH WIND       PRES   REMARKS
LINCOLN        PTCLDY    46  45  95 CALM      30.05S
MACOMB         FOG       44  44 100 CALM      30.05S VSB 1/2
MATTOON        CLEAR     46  45  96 CALM      30.07R FOG
MT CARMEL AP   FOG       45  43  93 CALM      30.07S VSB<1/4
OLNEY-NOBLE AP MOCLDY    43  43 100 CALM      30.08S FOG
PARIS          FOG       42  42 100 CALM      30.08S VSB 1
PEORIA         PTCLDY    50  46  86 CALM      30.05S
PONTIAC        PTCLDY    45  45 100 W3        30.06R
RANTOUL        CLEAR     46  44  92 CALM      30.07S FOG
ROBINSON       FOG       44  44 100 CALM      30.09S VSB 1/2
SPRINGFIELD    CLEAR     47  45  93 NE3       30.06S
TAYLORVILLE    CLEAR     45  45 100 SE3       30.06F FOG
$$

...REGIONAL REPORTS...


CITY           SKY/WX    TMP DP  RH WIND       PRES   REMARKS
CHICAGO O`HARE PTCLDY    50  45  83 CALM      30.04S
KANKAKEE       CLEAR     42  42  99 CALM      30.07R FOG
MOLINE         CLOUDY    48  45  89 E3        30.03F
MOUNT VERNON   CLEAR     43  39  87 CALM      30.07S
PITTSFIELD     MOCLDY    50  48  94 CALM      30.03S FOG
QUINCY         MOCLDY    54  50  86 S6        30.01S
ROCKFORD       PTCLDY    42  39  89 CALM      30.07R
$$


CITY           SKY/WX    TMP DP  RH WIND       PRES   REMARKS
BURLINGTON     MOCLDY    51  50  96 CALM      30.02S
CEDAR RAPIDS   CLEAR     47  46  97 CALM      30.01S
DES MOINES     CLOUDY    58  50  75 SE7       29.97F
KIRKSVILLE     CLOUDY    55  53  93 SE6       29.99F
OTTUMWA        CLOUDY    54  51  90 SE7       29.99F
ST LOUIS       PTCLDY    54  50  86 SE3       30.03F
$$


CITY           SKY/WX    TMP DP  RH WIND       PRES   REMARKS
TERRE HAUTE    FOG       43  42  97 CALM      30.08S VSB 1/4
EVANSVILLE     CLEAR     47  45  93 CALM      30.07F FOG
INDIANAPOLIS   PTCLDY    47  45  93 CALM      30.07S FOG
LAFAYETTE      FOG       42  42 100 CALM      30.07S VSB 1/4
MADISON        PTCLDY    40  38  93 CALM      30.03S
MILWAUKEE      PTCLDY    48  42  80 S3        30.04S
$$




USA.gov is the U.S. government's official web portal to all federal, state and local government web resources and services.